contact:dominique.lefevre@mio.osupytheas.fr, maurice.libes@osupytheas.fr, didier.mallarino@osupytheas.fr
Project:EMSO http://www.emso-fr.org/EMSO-France
Depth: 2436.0 m
Title:EMSO Ligure Ouest : Data MII capteur CSTAR
DateTime,Latitude,Longitude,Instrument_Serial,Reference_Counts,Signal_Counts,Corrected_Signal_raw_counts,Calculated_Beam_c_inverse_meters,Internal_thermistor_counts
DateTime,Latitude,Longitude,Instrument_Serial,Reference_Counts,Signal_Counts,Corrected_Signal_raw_counts,Calculated_Beam_c_inverse_meters,Internal_thermistor_counts
2019-07-31T00:00:09,42.805,6.029,CST-1368DR,8473,11851,15443,0.045,551
2019-07-31T00:03:10,42.805,6.029,CST-1368DR,8473,11853,15445,0.044,551
2019-07-31T00:06:12,42.805,6.029,CST-1368DR,8473,11852,15443,0.045,551
2019-07-31T00:09:14,42.805,6.029,CST-1368DR,8473,11851,15443,0.045,551
2019-07-31T00:12:15,42.805,6.029,CST-1368DR,8473,11851,15442,0.045,551
2019-07-31T00:15:17,42.805,6.029,CST-1368DR,8473,11852,15443,0.045,551
2019-07-31T00:18:18,42.805,6.029,CST-1368DR,8473,11852,15443,0.045,551
2019-07-31T00:21:20,42.805,6.029,CST-1368DR,8473,11850,15441,0.045,551
2019-07-31T00:24:22,42.805,6.029,CST-1368DR,8473,11851,15442,0.045,551
2019-07-31T00:27:23,42.805,6.029,CST-1368DR,8473,11850,15441,0.045,550
2019-07-31T00:30:25,42.805,6.029,CST-1368DR,8473,11850,15441,0.045,551
2019-07-31T00:33:27,42.805,6.029,CST-1368DR,8473,11848,15438,0.046,551
2019-07-31T00:36:28,42.805,6.029,CST-1368DR,8473,11852,15443,0.045,550
2019-07-31T00:39:30,42.805,6.029,CST-1368DR,8473,11851,15442,0.045,551
2019-07-31T00:42:32,42.805,6.029,CST-1368DR,8473,11850,15441,0.045,551
2019-07-31T00:45:33,42.805,6.029,CST-1368DR,8473,11851,15443,0.045,551
2019-07-31T00:48:35,42.805,6.029,CST-1368DR,8473,11850,15441,0.045,550
2019-07-31T00:51:36,42.805,6.029,CST-1368DR,8473,11850,15441,0.045,551
2019-07-31T00:54:38,42.805,6.029,CST-1368DR,8473,11851,15442,0.045,551
2019-07-31T00:57:40,42.805,6.029,CST-1368DR,8473,11851,15442,0.045,550
2019-07-31T01:00:42,42.805,6.029,CST-1368DR,8473,11851,15442,0.045,551
2019-07-31T01:03:43,42.805,6.029,CST-1368DR,8473,11852,15443,0.045,551
2019-07-31T01:06:45,42.805,6.029,CST-1368DR,8473,11851,15442,0.045,551
2019-07-31T01:09:46,42.805,6.029,CST-1368DR,8473,11851,15443,0.045,551
2019-07-31T01:12:48,42.805,6.029,CST-1368DR,8473,11850,15441,0.045,551
2019-07-31T01:15:50,42.805,6.029,CST-1368DR,8473,11851,15442,0.045,551
2019-07-31T01:18:51,42.805,6.029,CST-1368DR,8473,11845,15434,0.047,551
2019-07-31T01:21:53,42.805,6.029,CST-1368DR,8473,11850,15441,0.045,551
2019-07-31T01:24:55,42.805,6.029,CST-1368DR,8473,11852,15443,0.045,551
2019-07-31T01:27:56,42.805,6.029,CST-1368DR,8473,11848,15439,0.046,551
2019-07-31T01:30:58,42.805,6.029,CST-1368DR,8473,11851,15443,0.045,551
2019-07-31T01:33:59,42.805,6.029,CST-1368DR,8473,11844,15433,0.047,551
2019-07-31T01:37:01,42.805,6.029,CST-1368DR,8473,11850,15441,0.045,550
2019-07-31T01:40:03,42.805,6.029,CST-1368DR,8473,11841,15430,0.048,550
2019-07-31T01:43:04,42.805,6.029,CST-1368DR,8473,11852,15444,0.044,551
2019-07-31T01:46:06,42.805,6.029,CST-1368DR,8473,11849,15439,0.046,550
2019-07-31T01:49:08,42.805,6.029,CST-1368DR,8473,11849,15440,0.045,551
2019-07-31T01:52:09,42.805,6.029,CST-1368DR,8472,11851,15444,0.044,550
2019-07-31T01:55:11,42.805,6.029,CST-1368DR,8473,11847,15437,0.046,551
2019-07-31T01:58:13,42.805,6.029,CST-1368DR,8472,11849,15441,0.045,551
2019-07-31T02:01:14,42.805,6.029,CST-1368DR,8472,11847,15438,0.046,551
2019-07-31T02:04:16,42.805,6.029,CST-1368DR,8472,11852,15445,0.044,551
2019-07-31T02:07:17,42.805,6.029,CST-1368DR,8472,11848,15440,0.045,551
2019-07-31T02:10:19,42.805,6.029,CST-1368DR,8473,11851,15442,0.045,551
2019-07-31T02:13:21,42.805,6.029,CST-1368DR,8472,11851,15443,0.045,551
2019-07-31T02:16:22,42.805,6.029,CST-1368DR,8473,11850,15441,0.045,551
2019-07-31T02:19:24,42.805,6.029,CST-1368DR,8472,11849,15441,0.045,551
2019-07-31T02:22:26,42.805,6.029,CST-1368DR,8472,11849,15441,0.045,551
2019-07-31T02:25:27,42.805,6.029,CST-1368DR,8472,11847,15439,0.046,551
2019-07-31T02:28:29,42.805,6.029,CST-1368DR,8472,11849,15442,0.045,551
2019-07-31T02:31:31,42.805,6.029,CST-1368DR,8472,11850,15443,0.045,551
2019-07-31T02:34:32,42.805,6.029,CST-1368DR,8472,11849,15442,0.045,551
2019-07-31T02:37:34,42.805,6.029,CST-1368DR,8472,11850,15442,0.045,551
2019-07-31T02:40:36,42.805,6.029,CST-1368DR,8472,11851,15444,0.044,551
2019-07-31T02:43:37,42.805,6.029,CST-1368DR,8472,11845,15436,0.046,551
2019-07-31T02:46:39,42.805,6.029,CST-1368DR,8472,11850,15442,0.045,551
2019-07-31T02:49:40,42.805,6.029,CST-1368DR,8472,11850,15442,0.045,551
2019-07-31T02:52:42,42.805,6.029,CST-1368DR,8472,11851,15443,0.045,551
2019-07-31T02:55:44,42.805,6.029,CST-1368DR,8472,11849,15442,0.045,551
2019-07-31T02:58:45,42.805,6.029,CST-1368DR,8472,11850,15443,0.045,551
2019-07-31T03:01:47,42.805,6.029,CST-1368DR,8472,11847,15439,0.046,551
2019-07-31T03:04:49,42.805,6.029,CST-1368DR,8472,11850,15442,0.045,551
2019-07-31T03:07:50,42.805,6.029,CST-1368DR,8472,11847,15439,0.046,551
2019-07-31T03:10:52,42.805,6.029,CST-1368DR,8472,11850,15442,0.045,551
2019-07-31T03:13:54,42.805,6.029,CST-1368DR,8472,11849,15442,0.045,551
2019-07-31T03:16:55,42.805,6.029,CST-1368DR,8472,11850,15443,0.045,551
2019-07-31T03:19:57,42.805,6.029,CST-1368DR,8472,11847,15439,0.046,550
2019-07-31T03:22:59,42.805,6.029,CST-1368DR,8472,11849,15441,0.045,551
2019-07-31T03:26:00,42.805,6.029,CST-1368DR,8472,11849,15442,0.045,551
2019-07-31T03:29:02,42.805,6.029,CST-1368DR,8472,11850,15442,0.045,551
2019-07-31T03:32:04,42.805,6.029,CST-1368DR,8472,11847,15438,0.046,551
2019-07-31T03:35:05,42.805,6.029,CST-1368DR,8472,11844,15434,0.047,551
2019-07-31T03:38:07,42.805,6.029,CST-1368DR,8472,11846,15438,0.046,551
2019-07-31T03:41:08,42.805,6.029,CST-1368DR,8472,11850,15443,0.045,551
2019-07-31T03:44:10,42.805,6.029,CST-1368DR,8472,11849,15442,0.045,551
2019-07-31T03:47:12,42.805,6.029,CST-1368DR,8472,11848,15440,0.045,551
2019-07-31T03:50:14,42.805,6.029,CST-1368DR,8472,11847,15439,0.046,550
2019-07-31T03:53:15,42.805,6.029,CST-1368DR,8472,11849,15441,0.045,551
2019-07-31T03:56:17,42.805,6.029,CST-1368DR,8472,11846,15437,0.046,550
2019-07-31T03:59:19,42.805,6.029,CST-1368DR,8472,11849,15442,0.045,551
2019-07-31T04:02:20,42.805,6.029,CST-1368DR,8472,11848,15440,0.045,551
2019-07-31T04:05:22,42.805,6.029,CST-1368DR,8472,11849,15442,0.045,551
2019-07-31T04:08:24,42.805,6.029,CST-1368DR,8471,11847,15440,0.045,550
2019-07-31T04:11:25,42.805,6.029,CST-1368DR,8471,11845,15437,0.046,550
2019-07-31T04:14:27,42.805,6.029,CST-1368DR,8471,11849,15443,0.045,551
2019-07-31T04:17:28,42.805,6.029,CST-1368DR,8472,11847,15439,0.046,551
2019-07-31T04:20:30,42.805,6.029,CST-1368DR,8471,11848,15442,0.045,551
2019-07-31T04:23:32,42.805,6.029,CST-1368DR,8471,11848,15442,0.045,551
2019-07-31T04:26:33,42.805,6.029,CST-1368DR,8471,11848,15442,0.045,551
2019-07-31T04:29:35,42.805,6.029,CST-1368DR,8471,11850,15444,0.044,551
2019-07-31T04:32:37,42.805,6.029,CST-1368DR,8471,11848,15441,0.045,551
2019-07-31T04:35:38,42.805,6.029,CST-1368DR,8471,11850,15445,0.044,551
2019-07-31T04:38:40,42.805,6.029,CST-1368DR,8471,11848,15441,0.045,551
2019-07-31T04:41:42,42.805,6.029,CST-1368DR,8471,11832,15421,0.050,551
2019-07-31T04:44:44,42.805,6.029,CST-1368DR,8471,11848,15441,0.045,551
2019-07-31T04:47:46,42.805,6.029,CST-1368DR,8471,11848,15441,0.045,551
2019-07-31T04:50:47,42.805,6.029,CST-1368DR,8471,11848,15441,0.045,551
2019-07-31T04:53:49,42.805,6.029,CST-1368DR,8471,11850,15444,0.044,551
2019-07-31T04:56:51,42.805,6.029,CST-1368DR,8471,11849,15442,0.045,550
2019-07-31T04:59:52,42.805,6.029,CST-1368DR,8471,11849,15443,0.045,551
2019-07-31T05:02:54,42.805,6.029,CST-1368DR,8471,11849,15442,0.045,551
2019-07-31T05:05:56,42.805,6.029,CST-1368DR,8471,11848,15442,0.045,551
2019-07-31T05:08:57,42.805,6.029,CST-1368DR,8471,11843,15435,0.047,551
2019-07-31T05:11:59,42.805,6.029,CST-1368DR,8471,11843,15435,0.047,551
2019-07-31T05:15:01,42.805,6.029,CST-1368DR,8471,11847,15440,0.045,551
2019-07-31T05:18:02,42.805,6.029,CST-1368DR,8471,11847,15441,0.045,551
2019-07-31T05:21:04,42.805,6.029,CST-1368DR,8471,11850,15444,0.044,551
2019-07-31T05:24:05,42.805,6.029,CST-1368DR,8471,11848,15441,0.045,551
2019-07-31T05:27:07,42.805,6.029,CST-1368DR,8471,11848,15442,0.045,551
2019-07-31T05:30:09,42.805,6.029,CST-1368DR,8471,11849,15442,0.045,551
2019-07-31T05:33:10,42.805,6.029,CST-1368DR,8471,11848,15442,0.045,551
2019-07-31T05:36:12,42.805,6.029,CST-1368DR,8471,11848,15442,0.045,551
2019-07-31T05:39:14,42.805,6.029,CST-1368DR,8471,11848,15442,0.045,551
2019-07-31T05:42:15,42.805,6.029,CST-1368DR,8471,11846,15439,0.046,551
2019-07-31T05:45:17,42.805,6.029,CST-1368DR,8471,11848,15441,0.045,551
2019-07-31T05:48:18,42.805,6.029,CST-1368DR,8471,11848,15442,0.045,551
2019-07-31T05:51:20,42.805,6.029,CST-1368DR,8471,11849,15442,0.045,551
2019-07-31T05:54:22,42.805,6.029,CST-1368DR,8471,11847,15441,0.045,551
2019-07-31T05:57:23,42.805,6.029,CST-1368DR,8471,11848,15441,0.045,551
2019-07-31T06:00:25,42.805,6.029,CST-1368DR,8471,11848,15441,0.045,551
2019-07-31T06:03:27,42.805,6.029,CST-1368DR,8471,11847,15440,0.045,551
2019-07-31T06:06:28,42.805,6.029,CST-1368DR,8471,11847,15440,0.045,551
2019-07-31T06:09:30,42.805,6.029,CST-1368DR,8471,11848,15442,0.045,551
2019-07-31T06:12:32,42.805,6.029,CST-1368DR,8471,11847,15440,0.045,551
2019-07-31T06:15:33,42.805,6.029,CST-1368DR,8471,11848,15441,0.045,551
2019-07-31T06:18:35,42.805,6.029,CST-1368DR,8470,11842,15436,0.046,551
2019-07-31T06:21:36,42.805,6.029,CST-1368DR,8470,11845,15439,0.046,551
2019-07-31T06:24:38,42.805,6.029,CST-1368DR,8470,11848,15443,0.045,550
2019-07-31T06:27:40,42.805,6.029,CST-1368DR,8470,11847,15442,0.045,551
2019-07-31T06:30:41,42.805,6.029,CST-1368DR,8470,11847,15441,0.045,551
2019-07-31T06:33:43,42.805,6.029,CST-1368DR,8470,11847,15442,0.045,550
2019-07-31T06:36:45,42.805,6.029,CST-1368DR,8470,11848,15443,0.045,551
2019-07-31T06:39:46,42.805,6.029,CST-1368DR,8470,11849,15444,0.044,551
2019-07-31T06:42:48,42.805,6.029,CST-1368DR,8470,11845,15439,0.046,551
2019-07-31T06:45:50,42.805,6.029,CST-1368DR,8470,11846,15440,0.045,551
2019-07-31T06:48:51,42.805,6.029,CST-1368DR,8470,11846,15441,0.045,551
2019-07-31T06:51:53,42.805,6.029,CST-1368DR,8470,11847,15441,0.045,551
2019-07-31T06:54:54,42.805,6.029,CST-1368DR,8470,11846,15440,0.045,551
2019-07-31T06:57:56,42.805,6.029,CST-1368DR,8470,11847,15442,0.045,551
2019-07-31T07:00:58,42.805,6.029,CST-1368DR,8470,11847,15442,0.045,551
2019-07-31T07:03:59,42.805,6.029,CST-1368DR,8470,11848,15443,0.045,551
2019-07-31T07:07:01,42.805,6.029,CST-1368DR,8470,11846,15441,0.045,551
2019-07-31T07:10:03,42.805,6.029,CST-1368DR,8470,11848,15443,0.045,551
2019-07-31T07:13:04,42.805,6.029,CST-1368DR,8470,11845,15439,0.046,551
2019-07-31T07:16:06,42.805,6.029,CST-1368DR,8470,11847,15441,0.045,551
2019-07-31T07:19:08,42.805,6.029,CST-1368DR,8470,11844,15438,0.046,551
2019-07-31T07:22:09,42.805,6.029,CST-1368DR,8470,11846,15440,0.045,551
2019-07-31T07:25:11,42.805,6.029,CST-1368DR,8470,11847,15442,0.045,551
2019-07-31T07:28:12,42.805,6.029,CST-1368DR,8470,11846,15440,0.045,551
2019-07-31T07:31:14,42.805,6.029,CST-1368DR,8470,11845,15439,0.046,551
2019-07-31T07:34:16,42.805,6.029,CST-1368DR,8470,11847,15442,0.045,551
2019-07-31T07:37:17,42.805,6.029,CST-1368DR,8470,11847,15442,0.045,551
2019-07-31T07:40:19,42.805,6.029,CST-1368DR,8470,11843,15437,0.046,551
2019-07-31T07:43:21,42.805,6.029,CST-1368DR,8470,11847,15442,0.045,551
2019-07-31T07:46:22,42.805,6.029,CST-1368DR,8470,11846,15441,0.045,550
2019-07-31T07:49:24,42.805,6.029,CST-1368DR,8470,11848,15443,0.045,551
2019-07-31T07:52:26,42.805,6.029,CST-1368DR,8470,11848,15443,0.045,551
2019-07-31T07:55:27,42.805,6.029,CST-1368DR,8470,11847,15442,0.045,551
2019-07-31T07:58:29,42.805,6.029,CST-1368DR,8470,11844,15438,0.046,551
2019-07-31T08:01:30,42.805,6.029,CST-1368DR,8469,11847,15444,0.044,550
2019-07-31T08:04:32,42.805,6.029,CST-1368DR,8470,11845,15439,0.046,551
2019-07-31T08:07:34,42.805,6.029,CST-1368DR,8469,11847,15443,0.045,551
2019-07-31T08:10:35,42.805,6.029,CST-1368DR,8469,11843,15438,0.046,551
2019-07-31T08:13:37,42.805,6.029,CST-1368DR,8469,11848,15444,0.044,551
2019-07-31T08:16:39,42.805,6.029,CST-1368DR,8469,11847,15443,0.045,551
2019-07-31T08:19:40,42.805,6.029,CST-1368DR,8469,11844,15440,0.045,551
2019-07-31T08:22:42,42.805,6.029,CST-1368DR,8469,11847,15444,0.044,551
2019-07-31T08:25:44,42.805,6.029,CST-1368DR,8469,11840,15434,0.047,551
2019-07-31T08:28:45,42.805,6.029,CST-1368DR,8469,11844,15440,0.045,551
2019-07-31T08:31:47,42.805,6.029,CST-1368DR,8469,11845,15441,0.045,550
2019-07-31T08:34:48,42.805,6.029,CST-1368DR,8469,11843,15439,0.046,551
2019-07-31T08:37:50,42.805,6.029,CST-1368DR,8469,11845,15441,0.045,551
2019-07-31T08:40:52,42.805,6.029,CST-1368DR,8469,11844,15440,0.045,551
2019-07-31T08:43:53,42.805,6.029,CST-1368DR,8469,11847,15443,0.045,551
2019-07-31T08:46:55,42.805,6.029,CST-1368DR,8469,11846,15442,0.045,551
2019-07-31T08:49:57,42.805,6.029,CST-1368DR,8469,11845,15441,0.045,551
2019-07-31T08:52:58,42.805,6.029,CST-1368DR,8469,11847,15443,0.045,551
2019-07-31T08:56:00,42.805,6.029,CST-1368DR,8469,11847,15443,0.045,551
2019-07-31T08:59:02,42.805,6.029,CST-1368DR,8469,11845,15441,0.045,551
2019-07-31T09:02:03,42.805,6.029,CST-1368DR,8469,11844,15440,0.045,551
2019-07-31T09:05:05,42.805,6.029,CST-1368DR,8469,11841,15436,0.046,551
2019-07-31T09:08:06,42.805,6.029,CST-1368DR,8469,11846,15442,0.045,551
2019-07-31T09:11:08,42.805,6.029,CST-1368DR,8469,11841,15435,0.047,551
2019-07-31T09:14:10,42.805,6.029,CST-1368DR,8469,11844,15439,0.046,551
2019-07-31T09:17:11,42.805,6.029,CST-1368DR,8469,11846,15442,0.045,551
2019-07-31T09:20:13,42.805,6.029,CST-1368DR,8469,11846,15442,0.045,551
2019-07-31T09:23:15,42.805,6.029,CST-1368DR,8469,11844,15440,0.045,551
2019-07-31T09:26:16,42.805,6.029,CST-1368DR,8469,11846,15442,0.045,551
2019-07-31T09:29:18,42.805,6.029,CST-1368DR,8469,11842,15437,0.046,551
2019-07-31T09:32:20,42.805,6.029,CST-1368DR,8469,11844,15440,0.045,551
2019-07-31T09:35:21,42.805,6.029,CST-1368DR,8469,11846,15442,0.045,551
2019-07-31T09:38:23,42.805,6.029,CST-1368DR,8469,11845,15441,0.045,550
2019-07-31T09:41:24,42.805,6.029,CST-1368DR,8469,11847,15443,0.045,551
2019-07-31T09:44:26,42.805,6.029,CST-1368DR,8469,11846,15442,0.045,551
2019-07-31T09:47:28,42.805,6.029,CST-1368DR,8469,11846,15442,0.045,551
2019-07-31T09:50:29,42.805,6.029,CST-1368DR,8469,11840,15435,0.047,551
2019-07-31T09:53:31,42.805,6.029,CST-1368DR,8469,11846,15442,0.045,551
2019-07-31T09:56:33,42.805,6.029,CST-1368DR,8469,11844,15440,0.045,551
2019-07-31T09:59:34,42.805,6.029,CST-1368DR,8469,11845,15440,0.045,551
2019-07-31T10:02:36,42.805,6.029,CST-1368DR,8469,11838,15432,0.047,551
2019-07-31T10:05:38,42.805,6.029,CST-1368DR,8469,11844,15439,0.046,551
2019-07-31T10:08:39,42.805,6.029,CST-1368DR,8469,11842,15437,0.046,551
2019-07-31T10:11:41,42.805,6.029,CST-1368DR,8469,11844,15440,0.045,551
2019-07-31T10:14:43,42.805,6.029,CST-1368DR,8469,11845,15441,0.045,551
2019-07-31T10:17:44,42.805,6.029,CST-1368DR,8468,11846,15444,0.044,551
2019-07-31T10:20:46,42.805,6.029,CST-1368DR,8468,11841,15438,0.046,551
2019-07-31T10:23:48,42.805,6.029,CST-1368DR,8468,11845,15442,0.045,551
2019-07-31T10:26:49,42.805,6.029,CST-1368DR,8468,11845,15443,0.045,551
2019-07-31T10:29:51,42.805,6.029,CST-1368DR,8468,11845,15442,0.045,551
2019-07-31T10:32:53,42.805,6.029,CST-1368DR,8468,11845,15443,0.045,551
2019-07-31T10:35:54,42.805,6.029,CST-1368DR,8468,11844,15441,0.045,551
2019-07-31T10:38:56,42.805,6.029,CST-1368DR,8468,11841,15438,0.046,551
2019-07-31T10:41:57,42.805,6.029,CST-1368DR,8468,11838,15434,0.047,551
2019-07-31T10:44:59,42.805,6.029,CST-1368DR,8468,11844,15441,0.045,550
2019-07-31T10:48:01,42.805,6.029,CST-1368DR,8468,11843,15440,0.045,551
2019-07-31T10:51:02,42.805,6.029,CST-1368DR,8468,11842,15438,0.046,551
2019-07-31T10:54:04,42.805,6.029,CST-1368DR,8468,11845,15442,0.045,551
2019-07-31T10:57:06,42.805,6.029,CST-1368DR,8468,11844,15442,0.045,551
2019-07-31T11:00:07,42.805,6.029,CST-1368DR,8468,11844,15442,0.045,551
2019-07-31T11:03:09,42.805,6.029,CST-1368DR,8468,11845,15443,0.045,551
2019-07-31T11:06:10,42.805,6.029,CST-1368DR,8468,11842,15439,0.046,551
2019-07-31T11:09:12,42.805,6.029,CST-1368DR,8468,11845,15443,0.045,551
2019-07-31T11:12:14,42.805,6.029,CST-1368DR,8468,11842,15439,0.046,551
2019-07-31T11:15:15,42.805,6.029,CST-1368DR,8468,11843,15441,0.045,551
2019-07-31T11:18:17,42.805,6.029,CST-1368DR,8468,11839,15435,0.047,550
2019-07-31T11:21:19,42.805,6.029,CST-1368DR,8468,11842,15439,0.046,550
2019-07-31T11:24:20,42.805,6.029,CST-1368DR,8468,11842,15439,0.046,551
2019-07-31T11:27:22,42.805,6.029,CST-1368DR,8468,11842,15439,0.046,550
2019-07-31T11:30:23,42.805,6.029,CST-1368DR,8468,11844,15441,0.045,551
2019-07-31T11:33:25,42.805,6.029,CST-1368DR,8468,11845,15442,0.045,551
2019-07-31T11:36:27,42.805,6.029,CST-1368DR,8468,11838,15434,0.047,551
2019-07-31T11:39:28,42.805,6.029,CST-1368DR,8467,11829,15423,0.050,551
2019-07-31T11:42:30,42.805,6.029,CST-1368DR,8468,11843,15440,0.045,551
2019-07-31T11:45:32,42.805,6.029,CST-1368DR,8468,11843,15441,0.045,551
2019-07-31T11:48:33,42.805,6.029,CST-1368DR,8468,11845,15442,0.045,551
2019-07-31T11:51:35,42.805,6.029,CST-1368DR,8467,11843,15442,0.045,550
2019-07-31T11:54:37,42.805,6.029,CST-1368DR,8467,11844,15443,0.045,551
2019-07-31T11:57:38,42.805,6.029,CST-1368DR,8467,11841,15439,0.046,551
2019-07-31T12:00:40,42.805,6.029,CST-1368DR,8467,11842,15440,0.045,551
2019-07-31T12:03:42,42.805,6.029,CST-1368DR,8468,11845,15442,0.045,551
2019-07-31T12:06:43,42.805,6.029,CST-1368DR,8467,11840,15437,0.046,550
2019-07-31T12:09:45,42.805,6.029,CST-1368DR,8467,11843,15442,0.045,551
2019-07-31T12:12:47,42.805,6.029,CST-1368DR,8467,11843,15442,0.045,551
2019-07-31T12:15:48,42.805,6.029,CST-1368DR,8467,11842,15440,0.045,551
2019-07-31T12:18:50,42.805,6.029,CST-1368DR,8467,11840,15438,0.046,551
2019-07-31T12:21:52,42.805,6.029,CST-1368DR,8467,11841,15439,0.046,550
2019-07-31T12:24:53,42.805,6.029,CST-1368DR,8467,11845,15444,0.044,551
2019-07-31T12:27:55,42.805,6.029,CST-1368DR,8467,11839,15437,0.046,551
2019-07-31T12:30:57,42.805,6.029,CST-1368DR,8467,11842,15440,0.045,551
2019-07-31T12:33:58,42.805,6.029,CST-1368DR,8467,11842,15440,0.045,551
2019-07-31T12:37:00,42.805,6.029,CST-1368DR,8467,11843,15442,0.045,551
2019-07-31T12:40:01,42.805,6.029,CST-1368DR,8467,11843,15441,0.045,551
2019-07-31T12:43:03,42.805,6.029,CST-1368DR,8467,11843,15442,0.045,551
2019-07-31T12:46:05,42.805,6.029,CST-1368DR,8467,11843,15441,0.045,551
2019-07-31T12:49:06,42.805,6.029,CST-1368DR,8467,11843,15442,0.045,551
2019-07-31T12:52:08,42.805,6.029,CST-1368DR,8467,11840,15438,0.046,551
2019-07-31T12:55:10,42.805,6.029,CST-1368DR,8467,11840,15438,0.046,551
2019-07-31T12:58:11,42.805,6.029,CST-1368DR,8467,11843,15442,0.045,551
2019-07-31T13:01:13,42.805,6.029,CST-1368DR,8467,11844,15443,0.045,551
2019-07-31T13:04:14,42.805,6.029,CST-1368DR,8467,11843,15442,0.045,551
2019-07-31T13:07:16,42.805,6.029,CST-1368DR,8467,11840,15438,0.046,551
2019-07-31T13:10:18,42.805,6.029,CST-1368DR,8467,11841,15439,0.046,551
2019-07-31T13:13:19,42.805,6.029,CST-1368DR,8467,11833,15429,0.048,551
2019-07-31T13:16:21,42.805,6.029,CST-1368DR,8467,11842,15440,0.045,551
2019-07-31T13:19:23,42.805,6.029,CST-1368DR,8467,11833,15429,0.048,551
2019-07-31T13:22:24,42.805,6.029,CST-1368DR,8467,11841,15440,0.045,551
2019-07-31T13:25:26,42.805,6.029,CST-1368DR,8467,11843,15441,0.045,550
2019-07-31T13:28:28,42.805,6.029,CST-1368DR,8467,11840,15438,0.046,551
2019-07-31T13:31:29,42.805,6.029,CST-1368DR,8467,11843,15441,0.045,551
2019-07-31T13:34:31,42.805,6.029,CST-1368DR,8466,11843,15443,0.045,551
2019-07-31T13:37:33,42.805,6.029,CST-1368DR,8466,11842,15442,0.045,551
2019-07-31T13:40:34,42.805,6.029,CST-1368DR,8466,11841,15441,0.045,551
2019-07-31T13:43:36,42.805,6.029,CST-1368DR,8466,11838,15437,0.046,551
2019-07-31T13:46:37,42.805,6.029,CST-1368DR,8466,11843,15443,0.045,550
2019-07-31T13:49:39,42.805,6.029,CST-1368DR,8466,11841,15440,0.045,551
2019-07-31T13:52:41,42.805,6.029,CST-1368DR,8466,11833,15430,0.048,551
2019-07-31T13:55:42,42.805,6.029,CST-1368DR,8466,11838,15437,0.046,551
2019-07-31T13:58:44,42.805,6.029,CST-1368DR,8466,11828,15423,0.050,551
2019-07-31T14:01:46,42.805,6.029,CST-1368DR,8466,11840,15439,0.046,551
2019-07-31T14:04:47,42.805,6.029,CST-1368DR,8466,11841,15441,0.045,551
2019-07-31T14:07:49,42.805,6.029,CST-1368DR,8466,11841,15440,0.045,551
2019-07-31T14:10:50,42.805,6.029,CST-1368DR,8466,11842,15442,0.045,551
2019-07-31T14:13:52,42.805,6.029,CST-1368DR,8466,11843,15443,0.045,551
2019-07-31T14:16:54,42.805,6.029,CST-1368DR,8466,11842,15442,0.045,551
2019-07-31T14:19:55,42.805,6.029,CST-1368DR,8466,11841,15441,0.045,551
2019-07-31T14:22:57,42.805,6.029,CST-1368DR,8466,11841,15441,0.045,551
2019-07-31T14:25:59,42.805,6.029,CST-1368DR,8466,11841,15441,0.045,551
2019-07-31T14:29:00,42.805,6.029,CST-1368DR,8466,11839,15439,0.046,551
2019-07-31T14:32:02,42.805,6.029,CST-1368DR,8466,11841,15441,0.045,551
2019-07-31T14:35:04,42.805,6.029,CST-1368DR,8466,11839,15439,0.046,551
2019-07-31T14:38:05,42.805,6.029,CST-1368DR,8466,11840,15439,0.046,551
2019-07-31T14:41:07,42.805,6.029,CST-1368DR,8466,11840,15440,0.045,550
2019-07-31T14:44:09,42.805,6.029,CST-1368DR,8466,11840,15439,0.046,551
2019-07-31T14:47:10,42.805,6.029,CST-1368DR,8466,11842,15442,0.045,551
2019-07-31T14:50:12,42.805,6.029,CST-1368DR,8466,11840,15440,0.045,551
2019-07-31T14:53:14,42.805,6.029,CST-1368DR,8466,11837,15435,0.047,551
2019-07-31T14:56:15,42.805,6.029,CST-1368DR,8466,11841,15441,0.045,551
2019-07-31T14:59:17,42.805,6.029,CST-1368DR,8466,11838,15437,0.046,551
2019-07-31T15:02:19,42.805,6.029,CST-1368DR,8466,11839,15439,0.046,550
2019-07-31T15:05:20,42.805,6.029,CST-1368DR,8466,11837,15436,0.046,551
2019-07-31T15:08:22,42.805,6.029,CST-1368DR,8466,11840,15440,0.045,551
2019-07-31T15:11:23,42.805,6.029,CST-1368DR,8466,11841,15441,0.045,551
2019-07-31T15:14:25,42.805,6.029,CST-1368DR,8466,11841,15441,0.045,551
2019-07-31T15:17:27,42.805,6.029,CST-1368DR,8466,11834,15431,0.048,551
2019-07-31T15:20:28,42.805,6.029,CST-1368DR,8466,11842,15442,0.045,550
2019-07-31T15:23:30,42.805,6.029,CST-1368DR,8466,11841,15441,0.045,550
2019-07-31T15:26:32,42.805,6.029,CST-1368DR,8466,11841,15440,0.045,551
2019-07-31T15:29:33,42.805,6.029,CST-1368DR,8466,11838,15436,0.046,551
2019-07-31T15:32:35,42.805,6.029,CST-1368DR,8466,11842,15442,0.045,551
2019-07-31T15:35:36,42.805,6.029,CST-1368DR,8466,11841,15440,0.045,551
2019-07-31T15:38:38,42.805,6.029,CST-1368DR,8466,11842,15442,0.045,551
2019-07-31T15:41:40,42.805,6.029,CST-1368DR,8465,11838,15439,0.046,551
2019-07-31T15:44:41,42.805,6.029,CST-1368DR,8466,11840,15440,0.045,551
2019-07-31T15:47:43,42.805,6.029,CST-1368DR,8465,11840,15441,0.045,551
2019-07-31T15:50:45,42.805,6.029,CST-1368DR,8465,11841,15442,0.045,551
2019-07-31T15:53:46,42.805,6.029,CST-1368DR,8465,11831,15430,0.048,550
2019-07-31T15:56:48,42.805,6.029,CST-1368DR,8465,11835,15435,0.047,551
2019-07-31T15:59:50,42.805,6.029,CST-1368DR,8465,11840,15441,0.045,551
2019-07-31T16:02:51,42.805,6.029,CST-1368DR,8465,11838,15439,0.046,551
2019-07-31T16:05:53,42.805,6.029,CST-1368DR,8465,11841,15442,0.045,551
2019-07-31T16:08:55,42.805,6.029,CST-1368DR,8465,11840,15441,0.045,551
2019-07-31T16:11:56,42.805,6.029,CST-1368DR,8465,11837,15437,0.046,551
2019-07-31T16:14:58,42.805,6.029,CST-1368DR,8465,11839,15440,0.045,551
2019-07-31T16:17:59,42.805,6.029,CST-1368DR,8465,11839,15440,0.045,551
2019-07-31T16:21:01,42.805,6.029,CST-1368DR,8465,11841,15442,0.045,551
2019-07-31T16:24:03,42.805,6.029,CST-1368DR,8465,11839,15440,0.045,551
2019-07-31T16:27:04,42.805,6.029,CST-1368DR,8465,11838,15438,0.046,551
2019-07-31T16:30:06,42.805,6.029,CST-1368DR,8465,11840,15442,0.045,551
2019-07-31T16:33:08,42.805,6.029,CST-1368DR,8465,11835,15434,0.047,551
2019-07-31T16:36:09,42.805,6.029,CST-1368DR,8465,11841,15442,0.045,551